Printer-friendly version
Follow the MPC on Twitter Follow the MPC on Facebook The MPC blog
Minor Planet Center

MPEC 1999-O32 : 1997 GH3

The following Minor Planet Electronic Circular may be linked-to from your own Web pages, but must not otherwise be redistributed electronically.

A form allowing access to any MPEC is at the bottom of this page.


Read MPEC 1999-O31 Read MPEC 1999-O33


M.P.E.C. 1999-O32                                Issued 1999 July 30, 19:05 UT

     The Minor Planet Electronic Circulars contain information on unusual
         minor planets and routine data on comets.  They are published
   on behalf of Commission 20 of the International Astronomical Union by the
          Minor Planet Center, Smithsonian Astrophysical Observatory,
                          Cambridge, MA 02138, U.S.A.

             BMARSDEN@CFA.HARVARD.EDU or GWILLIAMS@CFA.HARVARD.EDU
          URL http://cfa-www.harvard.edu/iau/mpc.html  ISSN 1523-6714

                                   1997 GH3

                           Revision to MPEC 1997-H06

Observations:
     J97G03H 1 1992 11 02.34375 03 50 23.22 +16 13 48.2                      675
     J97G03H 1 1992 11 02.39583 03 50 20.07 +16 13 30.2                      675

Observer details:
675 Palomar Mountain.  Observers J. Mueller, J. D. Mendenhall.  Trail located
    and measured by A. Boattini.  1.2-m Schmidt.

First and last observations above in comparison with prediction:
Residuals in seconds of arc (or two decimals in degrees), reference and Delta-T
921102 675 0.08+ 0.01+    921102 675 0.08+ 0.01+    MPC 30293   -0.13 day

Orbital elements:
1997 GH3
Epoch 1999 Aug. 10.0 TT = JDT 2451400.5                 Williams
M 219.29798              (2000.0)            P               Q
n   0.25039157     Peri.  333.53848     -0.94298993     -0.33275992
a   2.4930036      Node   187.03421     +0.31385997     -0.88271486
e   0.5697982      Incl.    2.99093     +0.11073352     -0.33179107
P   3.94           H   17.1           G   0.15           U   1
Residuals in seconds of arc
921102 675  0.5-  0.5+    970413 046  0.2+  0.4-    970501 557  0.1+  0.1-
921102 675  0.3+  0.6+    970413 046  0.1-  0.1-    970501 557  0.4+  0.2-
970406 566  0.4-  0.1+    970413 046  0.2+  0.4-    970501 557  0.0   0.2-
970406 566  0.3-  0.1-    970413 557  0.5-  0.3-    970502 658  0.4-  0.2+
970406 566  0.3-  0.0     970413 557  0.3-  0.4-    970502 658  0.1+  0.4+
970407 566  0.4-  0.1-    970413 557  0.1+  0.4-    970502 658  0.7-  0.1-
970407 566  0.4-  0.1-    970413 557  0.1-  0.3-    970502 587  0.5+  0.5+
970407 566  0.0   0.2-    970413 557  0.0   0.4-    970502 587  0.2+  0.2+
970407 046  0.2+  0.2-    970413 557  0.2-  0.6-    970503 046  0.0   0.2+
970407 046  0.2+  0.5-    970413 118  0.2-  0.3-    970503 046  0.1-  0.3+
970407 046  0.2+  0.0     970413 118  0.1+  0.3-    970503 046  0.1+  0.2+
970407 046  0.1-  0.3-    970413 118  0.1-  0.3-    970503 557  0.0   0.4+
970407 046  0.5+  0.2-    970415 816  0.5-  0.2+    970503 557  0.2-  0.3+
970408 046  0.1-  0.1+    970415 816  0.8-  0.6+    970503 557  0.0   0.6+
970408 046  0.4+  0.2-    970415 816  0.0   0.1+    970503 557  0.3+  0.6+
970408 046  0.1-  0.0     970415 816  0.4-  0.1+    970503 557  0.2-  0.2+
970408 046  0.2-  0.0     970415 816  0.9-  0.4-    970504 360  0.2-  0.7+
970408 104  1.2+  0.5+    970418 046  0.6-  0.3+    970504 360  0.0   0.6+
970408 046  0.1+  0.0     970418 046  0.3-  0.2+    970504 360  0.2-  0.6+
970408 104  0.2+  0.3+    970418 046  0.2+  0.2+    970506 402  0.2+  0.5+
970408 104  0.2+  1.0+    970418 046  0.4-  0.3+    970506 402  0.1-  0.4+
970408 557  0.1-  0.1+    970419 658  0.6-  0.1+    970506 402  0.0   0.4+
970408 557  0.1-  0.0     970419 658  0.8-  0.0     970510 046  0.3-  0.0
970408 557  0.3+  0.0     970419 658  1.4-  0.2-    970510 046  0.5-  0.1-
970408 108  0.0   0.6-    970419 658  1.0-  0.1+    970510 046  0.3-  0.0
970408 108 (3.4+  2.0-)   970419 658  1.2-  0.0     970514 711  0.9+  0.5+
970408 108  0.3-  0.1-    970421 658  0.1-  0.0     970514 711  0.3+  0.2+
970409 670  0.2+  0.4-    970421 658  0.5+  0.0     970519 658  0.1-  0.2+
970409 658  0.3-  0.2+    970421 658  0.0   0.2+    970519 658  0.3+  0.3+
970409 670  0.1+  0.3+    970421 611  1.8-  1.4+    970519 658  1.2-  0.1+
970409 658  0.4-  0.3+    970421 611  0.7+  0.1-    970519 658  0.7-  0.0
970409 658  0.6-  0.3+    970421 611  0.3-  0.8+    970520 608  1.2+  1.1+
970409 658  0.2-  0.5+    970423 557  0.0   0.1-    970520 608  0.4-  1.5+
970409 658  0.6-  0.3+    970423 557  0.1-  0.1+    970521 608  0.2+  0.5+
970409 670  0.1+  0.1+    970423 557  0.2-  0.0     970521 608  0.3+  0.4+
970409 670 (0.9+  2.2+)   970423 557  0.3-  0.3+    970525 360  1.3+  0.9+
970409 046  0.1-  0.0     970424 046  0.3-  0.2+    970525 360  0.9+  1.0+
970409 046  0.2-  0.0     970424 046  0.2-  0.0     970525 360  1.0+  1.1+
970409 046  0.3-  0.0     970424 046  0.4-  0.0     970525 046  0.2+  0.9+
970409 046  0.1-  0.0     970424 046  0.5-  0.0     970527 608 (2.5-  0.1-)
970409 046  0.1-  0.1-    970425 402  0.9+  0.4+    970527 608 (2.8-  1.1-)
970409 046  0.2-  0.1-    970425 402  1.1+  0.3+    970527 118  0.0   0.3-
970410 670  0.5-  0.1-    970425 402  0.8+  0.4+    970527 118  0.7-  0.6-
970410 670  0.8+  0.5-    970426 360  0.3+  0.6+    970527 118  0.0   0.6-
970410 670  0.6+  0.3-    970426 360  0.2+  0.6+    970530 587  0.5+  0.8-
970410 670  0.0   0.1-    970426 360  0.2+  0.6+    970530 587  0.4+  0.5-
970410 658  1.1-  0.8-    970427 816  0.1+  0.7+    970531 861  0.1-  1.3-
970410 658  0.1+  0.9-    970427 816  0.0   0.6+    970531 861  0.6+  0.0
970410 422  0.1-  0.4-    970427 816  0.1-  0.7+    970601 861 (2.5+  0.8-)
970410 422  0.6-  0.4-    970429 118  0.7+  0.0     970601 566  0.0   1.1-
970410 422  0.1-  0.3-    970429 118  0.6+  0.3+    970601 566  0.7+  0.7-
970410 897  0.5-  0.5+    970429 118  0.6+  0.1+    970601 566  0.6+  0.8-
970410 897  0.8+  0.9-    970429 118  0.6+  0.0     970601 046  0.4-  0.6-
970410 897  1.2-  0.5-    970429 118  0.4+  0.3+    970601 046  0.5-  0.7-
970411 670  1.5+  0.1-    970430 816  0.3+  0.0     970601 046  0.6-  0.2-
970411 670  1.6+  0.4+    970430 816  0.5+  0.1-    970604 360  0.1-  0.2-
970411 658  0.2-  0.0     970430 784  0.4+  0.2-    970604 360  0.3-  0.6-
970411 658  0.2-  0.0     970430 816  0.8+  0.3-    970604 360  0.0   0.5-
970411 658  0.2-  1.1-    970430 816  0.8+  0.2-    970606 784  0.2-  0.6-
970411 670  1.4+  0.3+    970430 816  0.6+  0.1-    970606 784  0.4-  0.6-
970411 046  0.1+  0.5+    970430 784  0.4+  0.2-    970607 046  0.7-  0.2-
970411 046  1.2+  1.2-    970430 118  0.2+  0.1+    970607 046  0.6-  0.6-
970411 046  0.3+  0.6-    970430 118  0.3+  0.0     970607 046  0.9-  0.2-
970411 046  0.4+  1.0-    970430 118  0.5+  0.0     970609 118  0.6-  0.5+
970411 557  0.8+  0.1+    970430 118  0.1+  0.2+    970609 118  0.6-  0.2+
970411 557  0.7+  0.4-    970430 587  0.1-  0.1+    970610 557  0.4-  1.0-
970411 557  0.8+  0.5-    970430 587  0.1+  0.2-    970610 557  1.1-  0.2-
970412 658  0.3-  0.2-    970430 587  0.4+  0.6-    970612 402  1.6-  0.1-
970412 658  1.6-  0.3-    970501 402  0.2+  0.0     970612 360  0.7-  0.1+
970412 658  0.1-  0.3-    970501 402  0.2+  0.0     970612 402  1.4-  1.0-
970412 367  1.1+  0.1-    970501 402  0.2-  0.1+    970612 402  0.6-  0.6-
970412 367  0.7+  0.1+    970501 104  0.2-  0.3+    970612 360  0.6-  0.2-
970412 367  0.4-  0.4+    970501 104  0.3-  0.4+    970612 360  1.1-  0.0
970412 108  0.9+  1.3-    970501 104  0.2+  0.3+    970618 608  1.0+  0.0
970412 108  0.3-  1.0+    970501 104  0.2+  0.0     970618 608  0.3+  1.4-
970412 108 (0.4-  2.0+)   970501 046  0.1+  0.0     970629 360  0.9+  0.5-
970413 670  0.5+  0.4-    970501 046  0.0   0.0     970629 360  0.5+  0.1-
970413 670  0.4-  0.3-    970501 046  0.1-  0.0     970629 360  0.9+  0.6-
970413 670  0.1+  0.2+    970501 046  0.1-  0.1+
970413 670  0.3-  0.4+    970501 557  0.2+  0.1-

Gareth V. Williams           (C) Copyright 1999 MPC           M.P.E.C. 1999-O32

Read MPEC 1999-O31 Read MPEC 1999-O33


MPEC number:

Enter an MPEC number in one of the following forms:

  • 1997-B01 (the full form)
  • J97B01 (the packed version of the full form)
  • B01 (the abbreviated form)

Valid HTML 4.01!